This demonstration page uses our WeatherBlox Daily Observations layout. Learn more.

Left ArrowRight Arrow

39.51506, -84.39828

Hourly Observations for May 2, 2016

Temp ( °F °C ) Dew Point ( °F °C ) Humidity (%) Winds ( mph kmh ) Pressure ( in mb ) Visibility ( mi km ) Precip ( " mm )
12:15 am 00:15 Cloudy with Haze 61 16 56 13.1 83 83 N N/A 29.85 1011 5 8 N/A
12:35 am 00:35 Cloudy with Heavy Rain 62 16.6 57 13.8 84 84 WNW 10 17 29.85 1011 4 6 N/A
12:55 am 00:55 Cloudy with Light Rain 63 17.2 57 14 82 82 W 9 15 29.88 1012 10 16 N/A
1:15 am 01:15 Cloudy with Light Rain 63 17.3 56 13.6 79 79 WNW 5 7 29.85 1011 10 16 N/A
1:35 am 01:35 Mostly Cloudy 62 16.6 56 13.1 80 80 N N/A 29.88 1012 10 16 N/A
1:55 am 01:55 Cloudy with Light Rain 63 17 56 13.6 81 81 undefined N/A 29.88 1012 10 16 N/A
2:15 am 02:15 Cloudy 62 16.8 56 13.5 81 81 undefined N/A 29.88 1012 10 16 N/A
2:35 am 02:35 Cloudy with Rain 62 16.6 56 13.2 80 80 undefined N/A 29.85 1011 10 16 N/A
2:55 am 02:55 Cloudy 62 16.6 56 13.2 80 80 N N/A 29.88 1012 10 16 N/A
3:15 am 03:15 Partly Cloudy 60 15.3 54 12.2 82 82 N N/A 29.85 1011 7 11 N/A
3:35 am 03:35 Hazy 60 15.3 54 12.3 82 82 undefined N/A 29.88 1012 3 4 N/A
3:55 am 03:55 Cloudy 61 15.9 55 12.9 83 83 N N/A 29.88 1012 7 11 N/A
4:15 am 04:15 Cloudy 61 16 55 13 83 83 N N/A 29.88 1012 10 16 N/A
4:35 am 04:35 Cloudy 61 16 55 12.8 81 81 N N/A 29.88 1012 10 16 N/A
4:55 am 04:55 Cloudy 61 16 55 13 83 83 N N/A 29.88 1012 10 16 N/A
5:15 am 05:15 Cloudy 61 16 55 13 83 83 N N/A 29.88 1012 10 16 N/A
5:35 am 05:35 Cloudy 61 16 55 13 83 83 N N/A 29.88 1012 10 16 N/A
5:55 am 05:55 Mostly Cloudy 61 15.9 55 12.9 83 83 WSW 6 9 29.88 1012 10 16 N/A
6:15 am 06:15 Partly Cloudy 60 15.3 54 12.2 82 82 N N/A 29.88 1012 10 16 N/A
6:35 am 06:35 Mostly Cloudy 60 15.3 55 12.5 84 84 N N/A 29.88 1012 7 11 N/A
6:55 am 06:55 Cloudy 60 15.3 55 12.5 84 84 WNW 3 6 29.91 1013 10 16 N/A
7:15 am 07:15 Cloudy 60 15.3 54 12.3 82 82 WNW 5 7 29.91 1013 10 16 N/A
7:35 am 07:35 Cloudy 60 15.4 54 12.2 81 81 N N/A 29.94 1014 10 16 N/A
7:55 am 07:55 Mostly Cloudy 61 16 55 12.5 80 80 N N/A 29.94 1014 10 16 N/A
8:15 am 08:15 Mostly Cloudy 61 16 54 12.4 79 79 N N/A 29.94 1014 10 16 N/A
8:35 am 08:35 Mostly Cloudy 61 16 54 12.3 79 79 undefined N/A 29.94 1014 10 16 N/A
8:50 am 08:50 Mostly Cloudy 61 16 54 12.4 79 79 WNW 6 9 29.94 1014 10 16 N/A
9:15 am 09:15 Mostly Cloudy 62 16.5 53 11.7 73 73 WNW 6 9 29.94 1014 10 16 N/A
9:35 am 09:35 Mostly Cloudy 62 16.9 52 11.3 70 70 undefined N/A 29.94 1014 10 16 N/A
9:55 am 09:55 Cloudy 62 16.6 52 10.9 69 69 W 6 9 29.97 1015 10 16 N/A
10:15 am 10:15 Mostly Cloudy 62 16.9 52 10.9 68 68 WNW 7 11 29.97 1015 10 16 N/A
10:35 am 10:35 Cloudy 63 17 51 10.6 66 66 W 5 7 29.94 1014 10 16 N/A
10:55 am 10:55 Cloudy 61 16 52 10.9 72 72 undefined N/A 29.97 1015 10 16 N/A
11:15 am 11:15 Cloudy 61 16.3 53 11.4 73 73 undefined N/A 29.94 1014 10 16 N/A
11:35 am 11:35 Cloudy 62 16.6 51 10.6 68 68 undefined N/A 29.94 1014 10 16 N/A
11:55 am 11:55 Cloudy 62 16.6 51 10.7 68 68 undefined N/A 29.94 1014 10 16 N/A
12:15 pm 12:15 Cloudy 61 16 50 10.2 69 69 undefined N/A 29.94 1014 10 16 N/A
12:35 pm 12:35 Cloudy 63 17.1 52 11 68 68 undefined N/A 29.94 1014 10 16 N/A
12:55 pm 12:55 Cloudy 62 16.6 51 10.6 68 68 undefined N/A 29.94 1014 10 16 N/A
1:15 pm 13:15 Cloudy 63 17 51 10.4 65 65 undefined N/A 29.94 1014 10 16 N/A
1:35 pm 13:35 Mostly Cloudy 64 17.5 52 11 66 66 ENE 7 11 29.94 1014 10 16 N/A
1:55 pm 13:55 Mostly Cloudy 64 17.9 51 10.8 63 63 undefined N/A 29.94 1014 10 16 N/A
2:15 pm 14:15 Mostly Cloudy 63 17.3 50 10.1 63 63 undefined N/A 29.94 1014 10 16 N/A
2:35 pm 14:35 Cloudy 64 17.5 51 10.3 63 63 undefined N/A 29.94 1014 10 16 N/A
2:55 pm 14:55 Mostly Cloudy 64 18 51 10.7 63 63 undefined N/A 29.94 1014 10 16 N/A
3:15 pm 15:15 Partly Cloudy 64 18 51 10.4 61 61 undefined N/A 29.94 1014 10 16 N/A
3:35 pm 15:35 Mostly Cloudy 64 18 51 10.3 61 61 undefined N/A 29.94 1014 10 16 N/A
3:55 pm 15:55 Cloudy 64 18 50 10.2 61 61 undefined N/A 29.91 1013 10 16 N/A
4:15 pm 16:15 Cloudy 63 17.2 50 10.2 64 64 undefined N/A 29.91 1013 10 16 N/A
4:35 pm 16:35 Cloudy 62 16.8 50 9.9 64 64 undefined N/A 29.91 1013 10 16 N/A
4:55 pm 16:55 Mostly Cloudy 62 16.6 49 9.5 63 63 undefined N/A 29.91 1013 10 16 N/A
5:15 pm 17:15 Mostly Cloudy 62 16.6 49 9.7 64 64 undefined N/A 29.91 1013 10 16 N/A
5:35 pm 17:35 Mostly Cloudy 62 16.6 49 9.7 64 64 undefined N/A 29.91 1013 10 16 N/A
5:55 pm 17:55 Partly Cloudy 61 16.1 49 9.6 66 66 undefined N/A 29.91 1013 10 16 N/A
6:15 pm 18:15 Sunny 61 16 49 9.7 66 66 undefined N/A 29.91 1013 10 16 N/A
6:35 pm 18:35 Mostly Cloudy 61 16 49 9.6 66 66 undefined N/A 29.91 1013 10 16 N/A
6:55 pm 18:55 Cloudy 61 16 49 9.6 66 66 undefined N/A 29.91 1013 10 16 N/A
7:15 pm 19:15 Cloudy 60 15.8 50 9.8 68 68 undefined N/A 29.91 1013 10 16 N/A
7:35 pm 19:35 Cloudy 60 15.3 49 9.5 69 69 undefined N/A 29.91 1013 10 16 N/A
7:55 pm 19:55 Cloudy 60 15.3 49 9.5 69 69 undefined N/A 29.91 1013 10 16 N/A
8:15 pm 20:15 Cloudy 60 15.3 49 9.6 69 69 undefined N/A 29.91 1013 10 16 N/A
8:35 pm 20:35 Cloudy 60 15.3 49 9.7 69 69 undefined N/A 29.91 1013 10 16 N/A
8:55 pm 20:55 Cloudy 59 15.1 49 9.7 70 70 undefined N/A 29.91 1013 10 16 N/A
9:15 pm 21:15 Cloudy 57 14 48 8.8 71 71 undefined N/A 29.94 1014 10 16 N/A
9:35 pm 21:35 Cloudy 57 13.8 48 8.9 73 73 undefined N/A 29.94 1014 10 16 N/A
9:55 pm 21:55 Cloudy 57 13.8 48 9 73 73 undefined N/A 29.94 1014 10 16 N/A
10:15 pm 22:15 Cloudy 57 13.8 48 9.1 73 73 undefined N/A 29.97 1015 10 16 N/A
10:35 pm 22:35 Cloudy 57 13.8 49 9.2 74 74 undefined N/A 29.97 1015 10 16 N/A
10:55 pm 22:55 Cloudy 57 13.8 49 9.2 74 74 undefined N/A 29.97 1015 10 16 N/A
11:15 pm 23:15 Cloudy 57 13.8 48 8.9 73 73 undefined N/A 29.97 1015 10 16 N/A
11:35 pm 23:35 Cloudy 57 13.8 48 9.1 73 73 undefined N/A 29.97 1015 10 16 N/A
11:55 pm 23:55 Cloudy 57 13.8 48 9 73 73 undefined N/A 29.97 1015 10 16 N/A

Powered by AerisWeather